Regional Weather Roundup
Issued by NWS

Home | Current Version | Previous Version | Graphics & Text | Print | Product List | Glossary Off
Versions: 1 2 3 4 5 6 7 8 9 10 11 12 13 14 15 16 17 18 19 20 21 22 23 24 25 26 27 28 29 30 31 32 33 34 35 36 37 38 39 40 41 42 43 44 45 46 47 48 49 50

000
ASUS43 KMKX 231910
RWRWI

WISCONSIN REGIONAL WEATHER ROUNDUP
NATIONAL WEATHER SERVICE MILWAUKEE/SULLIVAN WI
200 PM CDT WED JUL 23 2014

NOTE: "FAIR" INDICATES FEW OR NO CLOUDS BELOW 12,000 FEET WITH NO
SIGNIFICANT WEATHER AND/OR OBSTRUCTIONS TO VISIBILITY.

WIZ001-002-006>008-014>016-023>028-232000-
NORTHWEST WISCONSIN

CITY           SKY/WX    TMP DP  RH WIND       PRES   REMARKS
SUPERIOR ARPT  PTSUNNY   72  57  60 NE6       30.24S
ASHLAND        MOSUNNY   73  57  57 NE9       30.25S
HAYWARD        MOSUNNY   74  52  46 VRB6      30.24S
SIREN          MOSUNNY   77  53  43 NE10      30.23F
RICE LAKE      MOSUNNY   77  51  39 W3        30.24S
LADYSMITH      MOSUNNY   74  54  49 NW9       30.24S
EAU CLAIRE     MOSUNNY   80  54  40 VRB5      30.20F HX  80
MENOMONIE      MOCLDY    78  50  38 N3        30.22S
NEW RICHMOND   MOSUNNY   76  52  43 NW6       30.24S
OSCEOLA        PTSUNNY   76  55  47 W7        30.25F
$$

WIZ003>005-009-010-017-018-232000-
NORTH CENTRAL WISCONSIN

CITY           SKY/WX    TMP DP  RH WIND       PRES   REMARKS
WOODRUFF       MOSUNNY   74  53  47 CALM      30.24S
RHINELANDER    CLOUDY    68  51  54 N6        30.24F
EAGLE RIVER    CLOUDY    67  49  51 NE7       30.24S
LAND O LAKES   CLOUDY    67  49  51 CALM      30.25S
PHILLIPS       PTSUNNY   73  53  50 N8        30.23R
TOMAHAWK       PTSUNNY   70  54  58 CALM      30.24S
MEDFORD        PTSUNNY   71  53  52 N5        30.23S
MERRILL        PTSUNNY   71  54  56 N7        30.22S
$$

WIZ029-030-035-036-043>047-232000-
CENTRAL WISCONSIN

CITY           SKY/WX    TMP DP  RH WIND       PRES   REMARKS
WAUSAU         PTSUNNY   74  53  48 N8        30.20S
MOSINEE        NOT AVBL
MARSHFIELD     PTSUNNY   76  54  46 N3        30.21S
STEVENS POINT  PTSUNNY   73  52  46 N12       30.21S
WAUPACA        CLOUDY    78  51  38 N7G17     30.20R
WAUTOMA        PTSUNNY   76  53  44 N6        30.20S
WISC RAPIDS    MOSUNNY   79  52  38 N10       30.21F
CAMP DOUGLAS   PTSUNNY   79  57  47 N8        30.20F HX  80
$$

WIZ011>013-019>022-031-037>040-048>050-232000-
NORTHEAST WISCONSIN

CITY           SKY/WX    TMP DP  RH WIND       PRES   REMARKS
ANTIGO         PTSUNNY   70  53  54 N9        30.23S
STURGEON BAY   SUNNY     70  48  46 N16       30.20F
GREEN BAY      PTSUNNY   73  54  51 NE15      30.19S
MANITOWOC      SUNNY     66  53  63 NE13      30.20R
APPLETON       PTSUNNY   73  48  40 N12G17    30.19F
CLINTONVILLE   CLOUDY    73  46  38 NE8       30.19S
OSHKOSH        PTSUNNY   75  52  44 N14G22    30.18S
$$

WIZ032>034-041-042-053>061-232000-
SOUTHWEST WISCONSIN

CITY           SKY/WX    TMP DP  RH WIND       PRES   REMARKS
LA CROSSE      PTSUNNY   79  55  43 NW8       30.20F
SPARTA         PTSUNNY   76  52  42 NW8       30.21F
VIROQUA        FAIR      76  56  49 NW7       30.22F
BOSCOBEL       PTSUNNY   79  54  41 N7        30.20S
PRAIRIE DU CHI PTSUNNY   76  52  42 N6        30.20F
PLATTEVILLE    PTSUNNY   75  55  50 N8        30.21S
$$

WIZ056-057-062-063-064-067-068-232000-
SOUTH CENTRAL WISCONSIN

CITY           SKY/WX    TMP DP  RH WIND       PRES   REMARKS
BARABOO/DELLS  PTSUNNY   76  50  40 NW7       30.20R
LONE ROCK      PTSUNNY   82  56  40 N10G18    30.20S HX  82
WATERTOWN      SUNNY     74  53  46 NE15G22   30.18S
MADISON        PTSUNNY   78  55  44 N14       30.19S
MIDDLETON      MOCLDY    76  51  40 NE8       30.20S
MONROE         PTSUNNY   75  55  50 N13G22    30.19S
JANESVILLE     MOSUNNY   77  48  36 N17G24    30.17F
$$

WIZ051-052-058>065-066-070>072-232000-
SOUTHEAST WISCONSIN

CITY           SKY/WX    TMP DP  RH WIND       PRES   REMARKS
MILWAUKEE      MOSUNNY   68  55  63 NE14      30.19R
WAUKESHA       CLOUDY    72  52  49 E6        30.19R
MILWAUKEE/TIMM SUNNY     68  50  52 NE14      30.18F
RACINE         SUNNY     68  54  60 NE13G21   30.20S
BURLINGTON     MOSUNNY   72  55  55 E8        30.17S
KENOSHA        SUNNY     72  52  49 NE13G22   30.18S
FOND DU LAC    SUNNY     75  51  43 NE15G22   30.20S
SHEBOYGAN      SUNNY     65  53  65 NE15      30.20R
WEST BEND      CLOUDY    68  54  60 NE12      30.19R
JUNEAU         CLOUDY    73  48  41 N10       30.20S
$$

LSZ147-162-232000-
LAKE SUPERIOR

STATION/POSITION TIME  TEMP    WIND        PRES    WAVE
                       AIR SEA DIR/SP/G            HT/PER
                 (UTC) (F)     (DEG/KT/KT) (MB)    (FT/S)
$$

LMZ867-665-643>646-232000-
LAKE MICHIGAN

STATION/POSITION TIME  TEMP    WIND        PRES    WAVE
                       AIR SEA DIR/SP/G            HT/PER
                 (UTC) (F)     (DEG/KT/KT) (MB)    (FT/S)
$$

TC  - TEMPERATURE IN CELSIUS
VSB - VISIBILITY IN STATUTE MILES
WCI - WIND CHILL INDEX
HX  - HEAT INDEX




USA.gov is the U.S. government's official web portal to all federal, state and local government web resources and services.